DW4098 Weather Reports


Display with metric or nautical units.
time (UTC)temp
F
wind
direction
speed
MPH
gust
MPH
rain 1hr
in
rain 24hr
in
rain mn
in
humidity
%
barometer
mb
20260510071131 32 315 26.0 24.0 0.00 0.00 0.00 1 1032.5
20260510070151 32 315 26.0 24.0 0.00 0.00 0.00 1 1032.5
20260510065151 32 315 26.0 24.0 0.00 0.00 0.00 1 1032.5
20260510064131 71 136 6.0 12.0 0.00 0.00 0.00 60 1028.8
20260510063130 72 136 6.0 12.0 0.00 0.00 0.00 58 1028.6
20260510062130 32 315 26.0 24.0 0.00 0.00 0.00 1 1032.5
20260510061130 32 315 26.0 24.0 0.00 0.00 0.00 1 1031.5
20260510060151 32 315 26.0 24.0 0.00 0.00 0.00 1 1031.5
20260510055130 74 124 7.0 12.0 0.00 0.00 0.00 50 1028.2
20260510054131 32 315 26.0 24.0 0.00 0.00 0.00 1 1031.5
20260510053131 32 315 26.0 24.0 0.00 0.00 0.00 1 1031.5
20260510052131 32 315 26.0 24.0 0.00 0.00 0.00 1 1031.5
20260510051131 32 315 26.0 24.0 0.00 0.00 0.00 1 1031.5
20260510050130 75 134 6.0 12.0 0.00 0.00 0.00 50 1027.7
20260510045130 76 154 6.0 12.0 0.00 0.00 0.00 50 1027.7
20260510044151 32 315 26.0 24.0 0.00 0.00 0.00 1 1030.5
20260510043151 32 315 26.0 24.0 0.00 0.00 0.00 1 1030.5
20260510042130 32 315 26.0 24.0 0.00 0.00 0.00 1 1030.5
20260510041130 32 315 26.0 24.0 0.00 0.00 0.00 1 1030.5
20260510040131 76 139 6.0 12.0 0.00 0.00 0.00 46 1027.7
20260510035130 32 315 26.0 24.0 0.00 0.00 0.00 1 1031.5
20260510034130 32 315 26.0 24.0 0.00 0.00 0.00 1 1030.5
20260510033130 75 132 5.0 10.0 0.00 0.00 0.00 48 1027.7
20260510032130 75 145 5.0 9.0 0.00 0.00 0.00 48 1027.8
20260510031130 32 315 26.0 24.0 0.00 0.00 0.00 1 1031.5
20260510030131 32 315 26.0 24.0 0.00 0.00 0.00 1 1031.5
20260510025130 74 142 3.0 9.0 0.00 0.00 0.00 48 1028.1
20260510024130 32 315 26.0 24.0 0.00 0.00 0.00 1 1032.5
20260510023151 74 155 4.0 8.0 0.00 0.00 0.00 48 1028.5
20260510022130 32 315 26.0 24.0 0.00 0.00 0.00 1 1032.5
20260510021130 73 139 4.0 9.0 0.00 0.00 0.00 50 1028.9
20260510020131 32 315 26.0 24.0 0.00 0.00 0.00 1 1032.5
20260510015130 32 315 26.0 24.0 0.00 0.00 0.00 1 1032.5
20260510014129 32 315 26.0 24.0 0.00 0.00 0.00 1 1032.5
20260510013130 32 315 26.0 24.0 0.00 0.00 0.00 1 1032.5
20260510012130 70 122 3.0 7.0 0.00 0.00 0.00 60 1029.5
20260510011129 68 96 2.0 6.0 0.00 0.00 0.00 62 1029.6
20260510010131 68 61 1.0 3.0 0.00 0.00 0.00 62 1029.7
20260510005151 67 288 1.0 2.0 0.00 0.00 0.00 63 1029.8
20260510004150 32 315 26.0 24.0 0.00 0.00 0.00 1 1033.5
20260510003130 32 315 26.0 24.0 0.00 0.00 0.00 1 1033.5
20260510002130 32 315 26.0 24.0 0.00 0.00 0.00 1 1033.5
20260510001130 32 315 26.0 24.0 0.00 0.00 0.00 1 1033.5
20260510000151 32 315 26.0 24.0 0.00 0.00 0.00 1 1033.5
20260509235150 63 263 1.0 3.0 0.00 0.00 0.00 67 1030.1
20260509234129 62 311 2.0 4.0 0.00 0.00 0.00 70 1030.1
20260509233129 61 340 1.0 3.0 0.00 0.00 0.00 70 1029.9
20260509232129 32 315 26.0 24.0 0.00 0.00 0.00 1 1032.5
20260509231150 60 314 2.0 4.0 0.00 0.00 0.00 72 1029.9
20260509230130 32 315 26.0 24.0 0.00 0.00 0.00 1 1032.5
20260509225151 58 306 4.0 6.0 0.00 0.00 0.00 75 1030.0
20260509224130 32 315 26.0 24.0 0.00 0.00 0.00 1 1032.5
20260509223130 56 319 1.0 3.0 0.00 0.00 0.00 78 1030.0
20260509222130 55 312 3.0 5.0 0.00 0.00 0.00 79 1029.8
20260509221129 54 304 2.0 4.0 0.00 0.00 0.00 80 1029.7
20260509220130 54 0 0.0 0.0 0.00 0.00 0.00 82 1029.5
20260509215129 32 315 26.0 24.0 0.00 0.00 0.00 1 1032.5
20260509214129 50 0 0.0 0.0 0.00 0.00 0.00 87 1029.5
20260509213130 32 315 26.0 24.0 0.00 0.00 0.00 1 1031.5
20260509212129 46 0 0.0 0.0 0.00 0.00 0.00 88 1029.3
20260509211129 46 0 0.0 0.0 0.00 0.00 0.00 88 1029.3
20260509210130 45 0 0.0 0.0 0.00 0.00 0.00 89 1029.1
20260509205129 32 315 26.0 24.0 0.00 0.00 0.00 1 1030.5
20260509204130 45 0 0.0 0.0 0.00 0.00 0.00 90 1029.1
20260509203129 32 315 26.0 24.0 0.00 0.00 0.00 1 1030.5
20260509202129 45 0 0.0 0.0 0.00 0.00 0.00 89 1028.9
20260509201129 32 315 26.0 24.0 0.00 0.00 0.00 1 1029.5
20260509200129 45 0 0.0 0.0 0.00 0.00 0.00 89 1028.7
20260509195150 45 0 0.0 0.0 0.00 0.00 0.00 89 1028.5
20260509194129 32 315 26.0 24.0 0.00 0.00 0.00 1 1030.5
20260509193128 45 0 0.0 0.0 0.00 0.00 0.00 89 1028.2
20260509192150 45 0 0.0 0.0 0.00 0.00 0.00 88 1028.0
20260509192129 32 315 26.0 24.0 0.00 0.00 0.00 1 1030.5
20260509191129 46 0 0.0 0.0 0.00 0.00 0.00 88 1027.9
20260509190129 46 0 0.0 0.0 0.00 0.00 0.00 88 1027.8
20260509185149 46 0 0.0 0.0 0.00 0.00 0.00 88 1027.7
20260509184150 32 315 26.0 24.0 0.00 0.00 0.00 1 1029.5
20260509183129 32 315 26.0 24.0 0.00 0.00 0.00 1 1029.5
20260509182129 46 0 0.0 0.0 0.00 0.00 0.00 88 1027.4
20260509181129 32 315 26.0 24.0 0.00 0.00 0.00 1 1029.5
20260509180151 32 315 26.0 24.0 0.00 0.00 0.00 1 1029.5
20260509175129 32 315 26.0 24.0 0.00 0.00 0.00 1 1029.5
20260509174150 47 0 0.0 0.0 0.00 0.00 0.00 88 1027.3
20260509173129 32 315 26.0 24.0 0.00 0.00 0.00 1 1029.5
20260509172129 32 315 26.0 24.0 0.00 0.00 0.00 1 1029.5
20260509171129 47 0 0.0 0.0 0.00 0.00 0.00 88 1027.1
20260509170130 47 0 0.0 0.0 0.00 0.00 0.00 87 1027.0
20260509165129 47 0 0.0 0.0 0.00 0.00 0.00 87 1027.0
20260509164150 48 0 0.0 0.0 0.00 0.00 0.00 87 1027.1
20260509163128 48 0 0.0 0.0 0.00 0.00 0.00 87 1027.1
20260509162129 32 315 26.0 24.0 0.00 0.00 0.00 1 1029.5
20260509161128 48 0 0.0 0.0 0.00 0.00 0.00 87 1027.2
20260509160129 32 315 26.0 24.0 0.00 0.00 0.00 1 1029.5
20260509155129 32 315 26.0 24.0 0.00 0.00 0.00 1 1029.5
20260509154129 32 315 26.0 24.0 0.00 0.00 0.00 1 1029.5
20260509153150 32 315 26.0 24.0 0.00 0.00 0.00 1 1029.5
20260509152129 50 0 0.0 0.0 0.00 0.00 0.00 86 1027.1
20260509151149 50 0 0.0 0.0 0.00 0.00 0.00 86 1027.1
20260509150129 32 315 26.0 24.0 0.00 0.00 0.00 1 1029.5
20260509145130 50 0 0.0 0.0 0.00 0.00 0.00 86 1027.0
20260509144129 32 315 26.0 24.0 0.00 0.00 0.00 1 1029.5
20260509143129 32 315 26.0 24.0 0.00 0.00 0.00 1 1029.5
20260509142129 32 315 26.0 24.0 0.00 0.00 0.00 1 1029.5
20260509141129 32 315 26.0 24.0 0.00 0.00 0.00 1 1029.5
20260509140130 32 315 26.0 24.0 0.00 0.00 0.00 1 1029.5
20260509135129 50 0 0.0 0.0 0.00 0.00 0.00 84 1026.9
20260509134129 32 315 26.0 24.0 0.00 0.00 0.00 1 1030.5
20260509133150 51 0 0.0 0.0 0.00 0.00 0.00 83 1027.0
20260509132149 51 0 0.0 0.0 0.00 0.00 0.00 82 1027.0
20260509131129 52 0 0.0 0.0 0.00 0.00 0.00 82 1027.0
20260509130129 32 315 26.0 24.0 0.00 0.00 0.00 1 1029.5
20260509125149 51 0 0.0 0.0 0.00 0.00 0.00 81 1027.1
20260509124129 52 0 0.0 0.0 0.00 0.00 0.00 80 1027.1
20260509123128 32 315 26.0 24.0 0.00 0.00 0.00 1 1029.5
20260509122150 52 0 0.0 0.0 0.00 0.00 0.00 81 1027.2
20260509121128 32 315 26.0 24.0 0.00 0.00 0.00 1 1029.5
20260509120129 53 0 0.0 0.0 0.00 0.00 0.00 79 1027.0
20260509115149 32 315 26.0 24.0 0.00 0.00 0.00 1 1029.5
20260509114128 53 0 0.0 0.0 0.00 0.00 0.00 79 1027.0
20260509113128 54 0 0.0 0.0 0.00 0.00 0.00 78 1027.0
20260509112128 32 315 26.0 24.0 0.00 0.00 0.00 1 1030.5
20260509111149 55 0 0.0 0.0 0.00 0.00 0.00 76 1027.0
20260509110129 32 315 26.0 24.0 0.00 0.00 0.00 1 1029.5
20260509105128 32 315 26.0 24.0 0.00 0.00 0.00 1 1029.5
20260509104128 57 0 0.0 0.0 0.00 0.00 0.00 74 1026.9
20260509103128 32 315 26.0 24.0 0.00 0.00 0.00 1 1029.5
20260509102128 32 315 26.0 24.0 0.00 0.00 0.00 1 1029.5
20260509101128 62 0 0.0 0.0 0.00 0.00 0.00 64 1026.2
20260509100149 32 315 26.0 24.0 0.00 0.00 0.00 1 1029.5
20260509095128 32 315 26.0 24.0 0.00 0.00 0.00 1 1029.5
20260509094149 32 315 26.0 24.0 0.00 0.00 0.00 1 1029.5
20260509093128 32 315 26.0 24.0 0.00 0.00 0.00 1 1029.5
20260509092128 32 315 26.0 24.0 0.00 0.00 0.00 1 1028.5
20260509091128 32 315 26.0 24.0 0.00 0.00 0.00 1 1028.5
20260509090129 32 315 26.0 24.0 0.00 0.00 0.00 1 1028.5
20260509085128 62 118 0.0 2.0 0.00 0.00 0.00 63 1025.9
20260509084127 63 114 0.0 3.0 0.00 0.00 0.00 63 1025.8
20260509083127 32 315 26.0 24.0 0.00 0.00 0.00 1 1028.5
20260509082128 63 108 1.0 4.0 0.00 0.00 0.00 61 1025.5
20260509081149 64 109 2.0 4.0 0.00 0.00 0.00 60 1025.4
20260509080150 64 111 2.0 6.0 0.00 0.00 0.00 58 1025.1
20260509075127 63 115 2.0 6.0 0.00 0.00 0.00 55 1025.0
20260509074128 32 315 26.0 24.0 0.00 0.00 0.00 1 1028.5
20260509073149 32 315 26.0 24.0 0.00 0.00 0.00 1 1028.5
20260509072128 67 0 0.0 0.0 0.00 0.00 0.00 45 1024.4